FW6924 Weather Reports


Display with metric or nautical units.
time (UTC)temp
F
wind
direction
speed
MPH
gust
MPH
rain 1hr
in
rain 24hr
in
rain mn
in
humidity
%
barometer
mb
20260508161002 89 90 3.0 6.0 0.00 0.00 0.00 59 1013.6
20260508160005 88 334 2.0 8.0 0.00 0.00 0.00 62 1013.7
20260508154003 86 328 2.0 7.0 0.00 0.00 0.00 65 1014.1
20260508153002 87 340 2.0 6.0 0.00 0.00 0.00 64 1014.3
20260508152003 86 355 2.0 8.0 0.00 0.00 0.00 66 1014.3
20260508151002 86 334 2.0 6.0 0.00 0.00 0.00 67 1014.3
20260508150008 85 286 2.0 8.0 0.00 0.00 0.00 68 1014.3
20260508145001 83 101 2.0 6.0 0.00 0.00 0.00 73 1014.3
20260508144004 84 327 3.0 9.0 0.00 0.00 0.00 73 1014.6
20260508143001 84 360 2.0 9.0 0.00 0.00 0.00 73 1014.6
20260508142004 83 312 2.0 8.0 0.00 0.00 0.00 76 1014.7
20260508141002 83 286 1.0 4.0 0.00 0.00 0.00 79 1014.5
20260508135001 78 316 1.0 5.0 0.00 0.00 0.00 91 1014.6
20260508134001 77 346 1.0 4.0 0.00 0.00 0.00 94 1014.5
20260508133001 76 59 1.0 5.0 0.00 0.00 0.00 96 1014.5
20260508132003 75 295 0.0 2.0 0.00 0.00 0.00 96 1014.4
20260508131002 74 295 0.0 1.0 0.00 0.00 0.00 96 1014.3
20260508130004 73 305 0.0 0.0 0.00 0.00 0.00 96 1014.3
20260508125004 73 284 0.0 0.0 0.00 0.00 0.00 96 1014.5
20260508122002 71 291 0.0 0.0 0.00 0.00 0.00 96 1014.0
20260508121001 70 291 0.0 0.0 0.00 0.00 0.00 96 1014.0
20260508115001 69 291 0.0 0.0 0.00 0.00 0.00 96 1013.7
20260508114003 68 291 0.0 0.0 0.00 0.00 0.00 95 1013.6
20260508113002 68 262 0.0 1.0 0.00 0.00 0.00 95 1013.4
20260508111002 68 273 0.0 0.0 0.00 0.00 0.00 95 1013.3
20260508110006 68 273 0.0 0.0 0.00 0.00 0.00 95 1013.2
20260508104002 68 273 0.0 0.0 0.00 0.00 0.00 95 1012.8
20260508102001 68 273 0.0 0.0 0.00 0.00 0.00 94 1012.5
20260508101002 69 273 0.0 0.0 0.00 0.00 0.00 94 1012.4
20260508100005 69 273 0.0 0.0 0.00 0.00 0.00 94 1012.3
20260508095003 69 273 0.0 0.0 0.00 0.00 0.00 94 1012.2
20260508094001 70 273 0.0 0.0 0.00 0.00 0.00 94 1012.0
20260508093003 70 273 0.0 0.0 0.00 0.00 0.00 94 1012.0
20260508091004 70 273 0.0 0.0 0.00 0.00 0.00 94 1012.0
20260508090004 70 273 0.0 0.0 0.00 0.00 0.00 94 1011.9
20260508085000 70 273 0.0 0.0 0.00 0.00 0.00 94 1011.9
20260508084000 71 273 0.0 0.0 0.00 0.00 0.00 94 1011.9
20260508083000 71 273 0.0 0.0 0.00 0.00 0.00 94 1011.9
20260508081000 71 273 0.0 0.0 0.00 0.00 0.00 94 1011.9
20260508080003 71 273 0.0 0.0 0.00 0.00 0.00 94 1011.9
20260508075005 71 273 0.0 0.0 0.00 0.00 0.00 94 1012.1
20260508074000 71 273 0.0 0.0 0.00 0.00 0.00 94 1012.1
20260508072000 72 273 0.0 0.0 0.00 0.00 0.00 94 1012.2
20260508071003 72 273 0.0 0.0 0.00 0.00 0.00 94 1012.1
20260508070003 72 273 0.0 0.0 0.00 0.00 0.00 94 1012.3
20260508063000 73 273 0.0 2.0 0.00 0.00 0.00 94 1012.4
20260508062000 73 273 0.0 0.0 0.00 0.00 0.00 93 1012.4
20260508061000 73 273 0.0 0.0 0.00 0.00 0.00 93 1012.3
20260508060003 73 273 0.0 0.0 0.00 0.00 0.00 93 1012.5
20260508055000 73 273 0.0 0.0 0.00 0.00 0.00 92 1012.6
20260508054000 73 273 0.0 0.0 0.00 0.00 0.00 92 1012.7
20260508053000 73 273 0.0 0.0 0.00 0.00 0.00 93 1012.6
20260508050007 74 273 0.0 0.0 0.00 0.00 0.00 92 1012.7
20260508045002 74 273 0.0 0.0 0.00 0.00 0.00 92 1012.9
20260508044004 74 273 0.0 1.0 0.00 0.00 0.00 91 1012.9
20260508043002 74 273 0.0 0.0 0.00 0.00 0.00 91 1013.0
20260508042004 74 273 0.0 0.0 0.00 0.00 0.00 90 1013.0
20260508040009 74 273 0.0 1.0 0.00 0.00 0.00 89 1013.1
20260508033002 75 273 0.0 0.0 0.00 0.00 0.00 86 1013.2
20260508031002 75 273 0.0 0.0 0.00 0.00 0.00 86 1013.2
20260508025002 76 273 0.0 0.0 0.00 0.00 0.00 84 1013.2
20260508024012 76 273 0.0 1.0 0.00 0.00 0.00 84 1013.2
20260508021002 77 273 0.0 3.0 0.00 0.00 0.00 79 1012.9
20260508020007 77 275 0.0 2.0 0.00 0.00 0.00 78 1012.8
20260508014004 78 275 1.0 3.0 0.00 0.00 0.00 76 1012.7
20260508013002 78 276 1.0 3.0 0.00 0.00 0.00 75 1012.7
20260508012005 79 275 2.0 4.0 0.00 0.00 0.00 73 1012.6
20260508011002 80 275 2.0 6.0 0.00 0.00 0.00 71 1012.5
20260508010006 80 274 1.0 3.0 0.00 0.00 0.00 69 1012.4
20260508005002 81 275 2.0 4.0 0.00 0.00 0.00 67 1012.3
20260508004004 81 274 2.0 4.0 0.00 0.00 0.00 65 1012.3
20260508003002 82 277 2.0 5.0 0.00 0.00 0.00 63 1012.3
20260508001002 83 274 3.0 7.0 0.00 0.00 0.00 60 1012.3
20260508000006 84 277 4.0 7.0 0.00 0.00 0.00 59 1012.3
20260507235002 85 282 5.0 9.0 0.00 0.00 0.00 57 1012.4
20260507234004 86 279 4.0 8.0 0.00 0.00 0.00 55 1012.4
20260507233002 86 298 3.0 9.0 0.00 0.00 0.00 53 1012.3
20260507232004 86 290 3.0 9.0 0.00 0.00 0.00 52 1012.2
20260507231002 87 295 4.0 10.0 0.00 0.00 0.00 49 1012.1
20260507225002 88 323 4.0 10.0 0.00 0.00 0.00 46 1012.0
20260507224004 88 360 4.0 11.0 0.00 0.00 0.00 44 1012.1
20260507223002 88 277 6.0 11.0 0.00 0.00 0.00 43 1012.0
20260507222004 89 322 6.0 13.0 0.00 0.00 0.00 40 1012.0
20260507221002 89 300 6.0 11.0 0.00 0.00 0.00 41 1011.9
20260507215007 89 266 7.0 13.0 0.00 0.00 0.00 41 1011.8
20260507213002 90 291 7.0 13.0 0.00 0.00 0.00 38 1011.8
20260507212002 90 275 7.0 14.0 0.00 0.00 0.00 38 1011.9
20260507211002 90 266 8.0 13.0 0.00 0.00 0.00 39 1011.8
20260507210008 90 263 6.0 13.0 0.00 0.00 0.00 40 1011.9
20260507205002 91 306 7.0 12.0 0.00 0.00 0.00 39 1012.1
20260507204004 91 266 5.0 11.0 0.00 0.00 0.00 38 1012.0
20260507203002 90 245 7.0 14.0 0.00 0.00 0.00 38 1012.0
20260507201002 91 302 5.0 11.0 0.00 0.00 0.00 36 1012.2
20260507200006 90 221 5.0 9.0 0.00 0.00 0.00 44 1012.3
20260507195002 89 290 6.0 14.0 0.00 0.00 0.00 44 1012.4
20260507194004 89 193 6.0 12.0 0.00 0.00 0.00 51 1012.4
20260507193002 89 226 5.0 11.0 0.00 0.00 0.00 53 1012.6
20260507191001 89 240 6.0 13.0 0.00 0.00 0.00 54 1013.0
20260507190007 87 267 5.0 11.0 0.00 0.00 0.00 58 1013.1
20260507185002 87 250 6.0 13.0 0.00 0.00 0.00 58 1013.3
20260507184004 87 184 6.0 13.0 0.00 0.00 0.00 59 1013.5
20260507183002 87 222 7.0 13.0 0.00 0.00 0.00 59 1013.7
20260507182004 87 246 6.0 10.0 0.00 0.00 0.00 62 1013.8
20260507181001 87 211 7.0 12.0 0.00 0.00 0.00 64 1014.1
20260507180007 87 234 7.0 13.0 0.00 0.00 0.00 62 1014.2
20260507175002 86 213 7.0 14.0 0.00 0.00 0.00 65 1014.3
20260507174002 86 218 7.0 14.0 0.00 0.00 0.00 65 1014.4
20260507173002 86 211 6.0 14.0 0.00 0.00 0.00 65 1014.4
20260507172002 86 194 6.0 11.0 0.00 0.00 0.00 67 1014.4
20260507171002 86 188 7.0 15.0 0.00 0.00 0.00 64 1014.5
20260507170005 86 240 6.0 14.0 0.00 0.00 0.00 67 1014.5
20260507165003 86 235 5.0 12.0 0.00 0.00 0.00 67 1014.5
20260507164004 84 232 6.0 15.0 0.00 0.00 0.00 68 1014.7
20260507163002 85 216 6.0 12.0 0.00 0.00 0.00 65 1014.9